,,,PA_Meas_PMT16A,,PR_Meas_QMR101_102,,RH_Meas_QMH101,,SR_Meas_QMS101,,TA_Meas_QMH101,,GenWind,,GenWind,
date,time,status,PA,status,PR,status,RH,status,SR,status,TA,status,DirAvg,status,SpdAvg,
2011-06-24, 00:00:05,VALID,998.109,VALID,0,VALID,85.2992,VALID,0,VALID,22.6282,VALID,61,VALID,1.26563,
2011-06-24, 00:01:05,VALID,998.123,VALID,0,VALID,85.2229,VALID,0,VALID,22.5696,VALID,46,VALID,0.853906,
2011-06-24, 00:02:05,VALID,998.12,VALID,0,VALID,85.8332,VALID,0,VALID,22.4916,VALID,293,VALID,1.05234,
2011-06-24, 00:03:05,VALID,998.105,VALID,0,VALID,85.8332,VALID,0,VALID,22.5111,VALID,294,VALID,0.345703,
2011-06-24, 00:04:05,VALID,998.053,VALID,0,VALID,85.8256,VALID,0,VALID,22.4509,VALID,306,VALID,0.548437,
2011-06-24, 00:05:05,VALID,998.04,VALID,0,VALID,85.818,VALID,0,VALID,22.5111,VALID,19,VALID,1.22422,
2011-06-24, 00:06:05,VALID,998.071,VALID,0,VALID,85.6577,VALID,0,VALID,22.5696,VALID,29,VALID,1.68633,
2011-06-24, 00:07:05,VALID,998.018,VALID,0,VALID,85.7112,VALID,0,VALID,22.5892,VALID,17,VALID,1.66875,
2011-06-24, 00:08:05,VALID,998.03,VALID,0,VALID,85.7569,VALID,0,VALID,22.5306,VALID,339,VALID,1.36172,
2011-06-24, 00:09:05,VALID,998.103,VALID,0,VALID,86.0316,VALID,0,VALID,22.4916,VALID,243,VALID,0.988672,
2011-06-24, 00:10:05,VALID,998.051,VALID,0,VALID,86.1308,VALID,0,VALID,22.4916,VALID,310,VALID,0.666016,
2011-06-24, 00:11:05,VALID,998.019,VALID,0,VALID,86.497,VALID,0,VALID,22.4916,VALID,346,VALID,1.61406,
2011-06-24, 00:12:05,VALID,998.012,VALID,0,VALID,86.497,VALID,0,VALID,22.4916,VALID,10,VALID,1.52969,
2011-06-24, 00:13:05,VALID,998.049,VALID,0,VALID,86.436,VALID,0,VALID,22.4721,VALID,13,VALID,0.448828,
2011-06-24, 00:14:05,VALID,998.038,VALID,0,VALID,86.6038,VALID,0,VALID,22.4136,VALID,17,VALID,0.542188,
2011-06-24, 00:15:05,VALID,998.033,VALID,0,VALID,86.8937,VALID,0,VALID,22.3746,VALID,16,VALID,1.26328,
2011-06-24, 00:16:05,VALID,997.945,VALID,0,VALID,86.7946,VALID,0,VALID,22.3746,VALID,3,VALID,1.74258,
2011-06-24, 00:17:05,VALID,997.93,VALID,0,VALID,86.4741,VALID,0,VALID,22.4331,VALID,351,VALID,1.16562,
2011-06-24, 00:18:05,VALID,997.949,VALID,0,VALID,86.1689,VALID,0,VALID,22.4721,VALID,18,VALID,0.902344,
2011-06-24, 00:19:05,VALID,997.949,VALID,0,VALID,85.8103,VALID,0,VALID,22.4526,VALID,54,VALID,1.13164,
2011-06-24, 00:20:05,VALID,997.921,VALID,0,VALID,86.3978,VALID,0,VALID,22.4136,VALID,28,VALID,1.16484,
2011-06-24, 00:21:05,VALID,997.913,VALID,0,VALID,86.2071,VALID,0,VALID,22.3551,VALID,12,VALID,0.980469,
2011-06-24, 00:22:05,VALID,997.946,VALID,0,VALID,85.9934,VALID,0,VALID,22.2966,VALID,59,VALID,0.950391,
2011-06-24, 00:23:05,VALID,997.987,VALID,0,VALID,86.6115,VALID,0,VALID,22.2576,VALID,58,VALID,0.845703,
2011-06-24, 00:24:05,VALID,997.979,VALID,0,VALID,86.8785,VALID,0,VALID,22.2186,VALID,118,VALID,1.25898,
2011-06-24, 00:25:05,VALID,997.927,VALID,0,VALID,87.0769,VALID,0,VALID,22.2186,VALID,114,VALID,0.101563,
2011-06-24, 00:26:05,VALID,997.885,VALID,0,VALID,87.1303,VALID,0,VALID,22.199,VALID,95,VALID,0.494141,
2011-06-24, 00:27:05,VALID,997.901,VALID,0,VALID,87.3363,VALID,0,VALID,22.1795,VALID,43,VALID,0.901563,
2011-06-24, 00:28:05,VALID,997.893,VALID,0,VALID,87.6262,VALID,0,VALID,22.199,VALID,54,VALID,1.66719,
2011-06-24, 00:29:05,VALID,997.883,VALID,0,VALID,87.4354,VALID,0,VALID,22.1795,VALID,45,VALID,1.2293,
2011-06-24, 00:30:05,VALID,997.875,VALID,0,VALID,87.3363,VALID,0,VALID,22.121,VALID,173,VALID,0.671484,
2011-06-24, 00:31:05,VALID,997.934,VALID,0,VALID,87.8474,VALID,0,VALID,22.0625,VALID,168,VALID,0.823438,
2011-06-24, 00:32:05,VALID,997.783,VALID,0,VALID,88.1908,VALID,0,VALID,22.0625,VALID,353,VALID,1.675,
2011-06-24, 00:33:05,VALID,997.733,VALID,0,VALID,87.672,VALID,0,VALID,22.082,VALID,354,VALID,2.40859,
2011-06-24, 00:34:05,VALID,997.815,VALID,0,VALID,87.0616,VALID,0,VALID,22.121,VALID,16,VALID,1.70469,
2011-06-24, 00:35:05,VALID,997.874,VALID,0,VALID,86.7793,VALID,0,VALID,22.1405,VALID,55,VALID,1.00117,
2011-06-24, 00:36:05,VALID,997.845,VALID,0,VALID,86.5657,VALID,0,VALID,22.16,VALID,60,VALID,1.86172,
2011-06-24, 00:37:05,VALID,997.831,VALID,0,VALID,86.7106,VALID,0,VALID,22.1405,VALID,43,VALID,1.30508,
2011-06-24, 00:38:05,VALID,997.824,VALID,0,VALID,87.0997,VALID,0,VALID,22.0625,VALID,54,VALID,0.648438,
2011-06-24, 00:39:05,VALID,997.84,VALID,0,VALID,87.3897,VALID,0,VALID,21.9845,VALID,43,VALID,0.328516,
2011-06-24, 00:40:05,VALID,997.743,VALID,0,VALID,87.9009,VALID,0,VALID,21.9472,VALID,359,VALID,1.71836,
2011-06-24, 00:41:05,VALID,997.685,VALID,0,VALID,88.1603,VALID,0,VALID,21.9065,VALID,337,VALID,1.99453,
2011-06-24, 00:42:05,VALID,997.709,VALID,0,VALID,87.733,VALID,0,VALID,22.2592,VALID,174,VALID,1.48594,
2011-06-24, 00:43:05,VALID,997.723,VALID,0,VALID,85.8332,VALID,0,VALID,22.3746,VALID,114,VALID,2.13633,
2011-06-24, 00:44:05,VALID,997.699,VALID,0,VALID,85.9706,VALID,0,VALID,22.2966,VALID,109,VALID,0.445703,
2011-06-24, 00:45:05,VALID,997.657,VALID,0,VALID,86.0621,VALID,0,VALID,22.2788,VALID,49,VALID,1.34687,
2011-06-24, 00:46:05,VALID,997.666,VALID,0,VALID,85.9706,VALID,0,VALID,22.2381,VALID,36,VALID,0.327734,
2011-06-24, 00:47:05,VALID,997.675,VALID,0,VALID,85.818,VALID,0,VALID,22.2381,VALID,76,VALID,0.422656,
2011-06-24, 00:48:05,VALID,997.639,VALID,0,VALID,86.3826,VALID,0,VALID,22.2186,VALID,54,VALID,1.34648,
2011-06-24, 00:49:05,VALID,997.544,VALID,0,VALID,86.848,VALID,0,VALID,22.1812,VALID,25,VALID,1.87656,
2011-06-24, 00:50:05,VALID,997.537,VALID,0,VALID,86.9472,VALID,0,VALID,22.121,VALID,29,VALID,1.65898,
2011-06-24, 00:51:05,VALID,997.537,VALID,0,VALID,86.97,VALID,0,VALID,22.1015,VALID,24,VALID,0.741406,
2011-06-24, 00:52:05,VALID,997.512,VALID,0,VALID,86.9777,VALID,0,VALID,22.082,VALID,339,VALID,0.344922,
2011-06-24, 00:53:05,VALID,997.537,VALID,0,VALID,87.176,VALID,0,VALID,22.0235,VALID,354,VALID,0.385938,
2011-06-24, 00:54:05,VALID,997.552,VALID,0,VALID,87.4736,VALID,0,VALID,22.0057,VALID,28,VALID,0.478906,
2011-06-24, 00:55:05,VALID,997.529,VALID,0,VALID,87.0311,VALID,0,VALID,21.9845,VALID,99,VALID,1.43047,
2011-06-24, 00:56:05,VALID,997.509,VALID,0,VALID,86.3749,VALID,0,VALID,22.043,VALID,73,VALID,1.375,
2011-06-24, 00:57:04,VALID,997.47,VALID,0,VALID,85.9553,VALID,0,VALID,22.1422,VALID,62,VALID,2.22969,
2011-06-24, 00:58:04,VALID,997.469,VALID,0,VALID,85.8485,VALID,0,VALID,22.1812,VALID,52,VALID,1.66953,
2011-06-24, 00:59:04,VALID,997.465,VALID,0,VALID,85.9095,VALID,0,VALID,22.16,VALID,62,VALID,0.481641,
2011-06-24, 01:00:04,VALID,997.443,VALID,0,VALID,86.0621,VALID,0,VALID,22.1422,VALID,88,VALID,2.19922,
2011-06-24, 01:01:04,VALID,997.407,VALID,0,VALID,86.6877,VALID,0,VALID,22.004,VALID,69,VALID,1.70859,
2011-06-24, 01:02:04,VALID,997.337,VALID,0,VALID,86.8174,VALID,0,VALID,21.9455,VALID,63,VALID,2.00625,
2011-06-24, 01:03:04,VALID,997.402,VALID,0,VALID,86.8022,VALID,0,VALID,21.965,VALID,79,VALID,1.15156,
2011-06-24, 01:04:04,VALID,997.382,VALID,0,VALID,86.7946,VALID,0,VALID,21.9667,VALID,121,VALID,0.325,
2011-06-24, 01:05:04,VALID,997.404,VALID,0,VALID,86.7946,VALID,0,VALID,21.926,VALID,126,VALID,0.127344,
2011-06-24, 01:06:04,VALID,997.422,VALID,0,VALID,86.9014,VALID,0.112286,VALID,21.887,VALID,106,VALID,0.704687,
2011-06-24, 01:07:04,VALID,997.403,VALID,0,VALID,87.0845,VALID,0,VALID,21.8675,VALID,107,VALID,1.26797,
2011-06-24, 01:08:04,VALID,997.412,VALID,0,VALID,87.0616,VALID,0,VALID,21.9065,VALID,94,VALID,1.47187,
2011-06-24, 01:09:04,VALID,997.357,VALID,0,VALID,86.7411,VALID,0,VALID,21.9845,VALID,106,VALID,1.025,
2011-06-24, 01:10:04,VALID,997.367,VALID,0,VALID,86.5351,VALID,0,VALID,21.9845,VALID,130,VALID,0.555078,
2011-06-24, 01:11:04,VALID,997.34,VALID,0,VALID,86.4589,VALID,0,VALID,22.004,VALID,182,VALID,0.547266,
2011-06-24, 01:12:04,VALID,997.348,VALID,0,VALID,86.3978,VALID,0,VALID,22.0057,VALID,182,VALID,0.00585938,
2011-06-24, 01:13:04,VALID,997.348,VALID,0,VALID,86.5275,VALID,0,VALID,22.0057,VALID,182,VALID,0.0957031,
2011-06-24, 01:14:04,VALID,997.352,VALID,0,VALID,86.4894,VALID,0,VALID,22.004,VALID,164,VALID,0.339063,
2011-06-24, 01:15:04,VALID,997.343,VALID,0,VALID,85.7874,VALID,0,VALID,22.082,VALID,127,VALID,1.56328,
2011-06-24, 01:16:04,VALID,997.305,VALID,0,VALID,84.7498,VALID,0,VALID,22.2592,VALID,123,VALID,1.13711,
2011-06-24, 01:17:04,VALID,997.313,VALID,0,VALID,84.2844,VALID,0,VALID,22.3356,VALID,115,VALID,0.807813,
2011-06-24, 01:18:04,VALID,997.34,VALID,0,VALID,84.2692,VALID,0,VALID,22.3763,VALID,108,VALID,1.03516,
2011-06-24, 01:19:04,VALID,997.376,VALID,0,VALID,84.3455,VALID,0,VALID,22.3551,VALID,98,VALID,0.571875,
2011-06-24, 01:20:04,VALID,997.42,VALID,0,VALID,84.3455,VALID,0,VALID,22.3551,VALID,98,VALID,0.310547,
2011-06-24, 01:21:04,VALID,997.385,VALID,0,VALID,84.5972,VALID,0,VALID,22.3373,VALID,98,VALID,0.0316406,
2011-06-24, 01:22:04,VALID,997.443,VALID,0,VALID,84.8337,VALID,0,VALID,22.3161,VALID,98,VALID,0.000390625,
2011-06-24, 01:23:04,VALID,997.43,VALID,0,VALID,85.0932,VALID,0,VALID,22.2771,VALID,98,VALID,0.230078,
2011-06-24, 01:24:04,VALID,997.391,VALID,0,VALID,85.1313,VALID,0,VALID,22.3178,VALID,38,VALID,0.882813,
2011-06-24, 01:25:04,VALID,997.404,VALID,0,VALID,85.0703,VALID,0,VALID,22.3161,VALID,25,VALID,0.657031,
2011-06-24, 01:26:04,VALID,997.425,VALID,0,VALID,85.116,VALID,0,VALID,22.2966,VALID,286,VALID,0.918359,
2011-06-24, 01:27:04,VALID,997.445,VALID,0,VALID,85.2839,VALID,0,VALID,22.2966,VALID,276,VALID,0.197656,
2011-06-24, 01:28:04,VALID,997.453,VALID,0,VALID,85.322,VALID,0,VALID,22.2788,VALID,232,VALID,0.641797,
2011-06-24, 01:29:04,VALID,997.359,VALID,0,VALID,85.2992,VALID,0,VALID,22.2771,VALID,232,VALID,0.442578,
2011-06-24, 01:30:04,VALID,997.359,VALID,0,VALID,85.261,VALID,0,VALID,22.2983,VALID,78,VALID,1.0418,
2011-06-24, 01:31:04,VALID,997.315,VALID,0,VALID,84.5743,VALID,0,VALID,22.3746,VALID,94,VALID,1.26758,
2011-06-24, 01:32:04,VALID,997.303,VALID,0,VALID,84.2005,VALID,0,VALID,22.4721,VALID,89,VALID,0.898828,
2011-06-24, 01:33:04,VALID,997.252,VALID,0,VALID,84.0021,VALID,0,VALID,22.5323,VALID,83,VALID,0.220313,
2011-06-24, 01:34:04,VALID,997.223,VALID,0,VALID,84.0021,VALID,0,VALID,22.4933,VALID,83,VALID,0.0578125,
2011-06-24, 01:35:04,VALID,997.218,VALID,0,VALID,84.1929,VALID,0,VALID,22.4738,VALID,83,VALID,0.361719,
2011-06-24, 01:36:04,VALID,997.155,VALID,0,VALID,84.2844,VALID,0,VALID,22.4331,VALID,83,VALID,0.212891,
2011-06-24, 01:37:04,VALID,997.146,VALID,0,VALID,84.2005,VALID,0,VALID,22.4543,VALID,87,VALID,1.19414,
2011-06-24, 01:38:04,VALID,997.145,VALID,0,VALID,83.14,VALID,0,VALID,22.5519,VALID,97,VALID,0.723828,
2011-06-24, 01:39:04,VALID,997.131,VALID,0,VALID,82.5754,VALID,0,VALID,22.6494,VALID,97,VALID,0.790625,
2011-06-24, 01:40:04,VALID,997.11,VALID,0,VALID,82.5449,VALID,0,VALID,22.7452,VALID,118,VALID,1.15391,
2011-06-24, 01:41:04,VALID,997.064,VALID,0,VALID,82.4762,VALID,0,VALID,22.786,VALID,118,VALID,0.812109,
2011-06-24, 01:42:04,VALID,997.022,VALID,0,VALID,82.7127,VALID,0,VALID,22.8055,VALID,118,VALID,0.430859,
2011-06-24, 01:43:04,VALID,996.937,VALID,0,VALID,82.9035,VALID,0,VALID,22.7452,VALID,118,VALID,0.270312,
2011-06-24, 01:44:04,VALID,996.927,VALID,0,VALID,83.3002,VALID,0,VALID,22.7452,VALID,79,VALID,0.548047,
2011-06-24, 01:45:04,VALID,996.922,VALID,0,VALID,83.6435,VALID,0,VALID,22.7274,VALID,112,VALID,1.08008,
2011-06-24, 01:46:04,VALID,996.888,VALID,0,VALID,83.5749,VALID,0,VALID,22.8037,VALID,140,VALID,1.09297,
2011-06-24, 01:47:04,VALID,996.862,VALID,0,VALID,82.6212,VALID,0,VALID,22.9615,VALID,183,VALID,0.794141,
2011-06-24, 01:48:04,VALID,996.866,VALID,0,VALID,82.4228,VALID,0,VALID,23.0378,VALID,159,VALID,1.15234,
2011-06-24, 01:49:04,VALID,996.859,VALID,0,VALID,82.1939,VALID,0,VALID,23.1159,VALID,184,VALID,0.833984,
2011-06-24, 01:50:04,VALID,996.863,VALID,0,VALID,82.7509,VALID,0,VALID,23.311,VALID,179,VALID,2.66055,
2011-06-24, 01:51:04,VALID,996.851,VALID,0,VALID,80.1797,VALID,0,VALID,24.0329,VALID,191,VALID,2.11367,
2011-06-24, 01:52:04,VALID,996.866,VALID,0,VALID,77.0363,VALID,0,VALID,24.6965,VALID,187,VALID,3.06914,
2011-06-24, 01:53:04,VALID,996.856,VALID,0,VALID,74.8008,VALID,0,VALID,25.1845,VALID,203,VALID,2.60195,
2011-06-24, 01:54:04,VALID,996.821,VALID,0,VALID,72.6035,VALID,0,VALID,25.616,VALID,210,VALID,3.84258,
2011-06-24, 01:55:04,VALID,996.774,VALID,0,VALID,71.4285,VALID,0,VALID,25.8679,VALID,198,VALID,2.82852,
2011-06-24, 01:56:04,VALID,996.784,VALID,0,VALID,70.4595,VALID,0,VALID,26.0456,VALID,189,VALID,3.0207,
2011-06-24, 01:57:04,VALID,996.769,VALID,0,VALID,69.7118,VALID,0,VALID,26.1412,VALID,204,VALID,3.05508,
2011-06-24, 01:58:04,VALID,996.694,VALID,0,VALID,68.7734,VALID,0,VALID,26.2193,VALID,193,VALID,4.63906,
2011-06-24, 01:59:04,VALID,996.707,VALID,0,VALID,68.6132,VALID,0,VALID,26.319,VALID,206,VALID,3.22734,
2011-06-24, 02:00:04,VALID,996.72,VALID,0,VALID,68.5293,VALID,0,VALID,26.3365,VALID,208,VALID,2.69336,
2011-06-24, 02:01:04,VALID,996.672,VALID,0,VALID,68.6513,VALID,0,VALID,26.358,VALID,207,VALID,1.98828,
2011-06-24, 02:02:04,VALID,996.644,VALID,0,VALID,68.575,VALID,0,VALID,26.2974,VALID,188,VALID,2.60391,
2011-06-24, 02:03:04,VALID,996.643,VALID,0,VALID,68.2775,VALID,0,VALID,26.3756,VALID,213,VALID,3.19609,
2011-06-24, 02:04:04,VALID,996.635,VALID,0,VALID,67.8197,VALID,0,VALID,26.4361,VALID,227,VALID,2.43828,
2011-06-24, 02:05:04,VALID,996.592,VALID,0,VALID,67.4993,VALID,0,VALID,26.4341,VALID,215,VALID,4.12617,
2011-06-24, 02:06:04,VALID,996.598,VALID,0,VALID,66.866,VALID,0,VALID,26.5318,VALID,216,VALID,3.22461,
2011-06-24, 02:07:04,VALID,996.541,VALID,0,VALID,66.6295,VALID,0,VALID,26.5513,VALID,208,VALID,3.76328,
2011-06-24, 02:08:04,VALID,996.554,VALID,0,VALID,67.1941,VALID,0,VALID,26.5513,VALID,204,VALID,3.4918,
2011-06-24, 02:09:04,VALID,996.512,VALID,0,VALID,66.7821,VALID,0,VALID,26.5513,VALID,218,VALID,3.40625,
2011-06-24, 02:10:04,VALID,996.533,VALID,0,VALID,66.4006,VALID,0,VALID,26.5513,VALID,230,VALID,4.14102,
2011-06-24, 02:11:04,VALID,996.558,VALID,0,VALID,66.4006,VALID,0,VALID,26.5904,VALID,206,VALID,4.21328,
2011-06-24, 02:12:04,VALID,996.554,VALID,0,VALID,66.4616,VALID,0,VALID,26.651,VALID,222,VALID,3.16016,
2011-06-24, 02:13:04,VALID,996.552,VALID,0,VALID,66.7744,VALID,0,VALID,26.6099,VALID,223,VALID,2.46484,
2011-06-24, 02:14:04,VALID,996.526,VALID,0,VALID,67.1483,VALID,0,VALID,26.4927,VALID,221,VALID,2.75312,
2011-06-24, 02:15:04,VALID,996.484,VALID,0,VALID,67.3467,VALID,0,VALID,26.4341,VALID,226,VALID,3.01289,
2011-06-24, 02:16:04,VALID,996.537,VALID,0,VALID,67.9723,VALID,0,VALID,26.3951,VALID,215,VALID,2.94922,
2011-06-24, 02:17:04,VALID,996.532,VALID,0,VALID,67.7052,VALID,0,VALID,26.3756,VALID,218,VALID,3.0375,
2011-06-24, 02:18:04,VALID,996.507,VALID,0,VALID,67.629,VALID,0,VALID,26.3951,VALID,221,VALID,2.87734,
2011-06-24, 02:19:04,VALID,996.543,VALID,0,VALID,67.5221,VALID,0,VALID,26.3951,VALID,210,VALID,3.5918,
2011-06-24, 02:20:04,VALID,996.549,VALID,0,VALID,68.4148,VALID,0,VALID,26.3951,VALID,152,VALID,1.53477,
2011-06-24, 02:21:04,VALID,996.561,VALID,0,VALID,69.0404,VALID,0,VALID,26.1998,VALID,151,VALID,1.3582,
2011-06-24, 02:22:04,VALID,996.551,VALID,0,VALID,69.3227,VALID,0,VALID,26.0241,VALID,155,VALID,2.31875,
2011-06-24, 02:23:04,VALID,996.569,VALID,0,VALID,69.9407,VALID,0,VALID,25.9655,VALID,159,VALID,2.43281,
2011-06-24, 02:24:04,VALID,996.627,VALID,0,VALID,72.695,VALID,0,VALID,25.616,VALID,125,VALID,2.09883,
2011-06-24, 02:25:04,VALID,996.596,VALID,0,VALID,75.2509,VALID,0,VALID,24.9717,VALID,123,VALID,1.39336,
2011-06-24, 02:26:04,VALID,996.613,VALID,0,VALID,77.021,VALID,0,VALID,24.4233,VALID,111,VALID,1.7543,
2011-06-24, 02:27:04,VALID,996.598,VALID,0,VALID,78.6538,VALID,0,VALID,23.9939,VALID,111,VALID,1.51211,
2011-06-24, 02:28:04,VALID,996.61,VALID,0,VALID,80.3246,VALID,0,VALID,23.6232,VALID,97,VALID,1.16328,
2011-06-24, 02:29:04,VALID,996.616,VALID,0,VALID,81.9116,VALID,0,VALID,23.35,VALID,115,VALID,0.922656,
2011-06-24, 02:30:04,VALID,996.682,VALID,0,VALID,82.995,VALID,0,VALID,23.1159,VALID,153,VALID,0.772266,
2011-06-24, 02:31:04,VALID,996.672,VALID,0,VALID,83.6054,VALID,0,VALID,22.9598,VALID,138,VALID,0.594531,
2011-06-24, 02:32:04,VALID,996.64,VALID,0,VALID,83.9487,VALID,0,VALID,22.8623,VALID,135,VALID,0.120312,
2011-06-24, 02:33:04,VALID,996.69,VALID,0,VALID,84.3989,VALID,0,VALID,22.8037,VALID,135,VALID,0.413281,
2011-06-24, 02:34:04,VALID,996.679,VALID,0,VALID,84.7727,VALID,0,VALID,22.7452,VALID,133,VALID,0.427734,
2011-06-24, 02:35:04,VALID,996.702,VALID,0,VALID,85.0092,VALID,0,VALID,22.6884,VALID,79,VALID,0.995313,
2011-06-24, 02:36:04,VALID,996.714,VALID,0,VALID,85.2992,VALID,0,VALID,22.5892,VALID,70,VALID,1.09687,
2011-06-24, 02:37:04,VALID,996.722,VALID,0,VALID,85.2534,VALID,0,VALID,22.5111,VALID,30,VALID,1.10078,
2011-06-24, 02:38:04,VALID,996.712,VALID,0,VALID,85.3526,VALID,0,VALID,22.4331,VALID,24,VALID,0.626562,
2011-06-24, 02:39:04,VALID,996.715,VALID,0,VALID,85.7112,VALID,0,VALID,22.3161,VALID,24,VALID,0.403906,
2011-06-24, 02:40:04,VALID,996.716,VALID,0,VALID,86.1689,VALID,0,VALID,22.2186,VALID,23,VALID,0.386719,
2011-06-24, 02:41:04,VALID,996.717,VALID,0,VALID,86.7106,VALID,0,VALID,22.16,VALID,336,VALID,0.446484,
2011-06-24, 02:42:04,VALID,996.716,VALID,0,VALID,87.0006,VALID,0,VALID,22.1405,VALID,336,VALID,0.441406,
2011-06-24, 02:43:04,VALID,996.718,VALID,0,VALID,87.0769,VALID,0,VALID,22.121,VALID,336,VALID,0.508594,
2011-06-24, 02:44:04,VALID,996.724,VALID,0,VALID,87.1379,VALID,0,VALID,22.0803,VALID,336,VALID,0.494922,
2011-06-24, 02:45:04,VALID,996.726,VALID,0,VALID,87.2829,VALID,0,VALID,22.0625,VALID,336,VALID,0.663281,
2011-06-24, 02:46:04,VALID,996.765,VALID,0,VALID,87.4507,VALID,0,VALID,22.004,VALID,356,VALID,0.783984,
2011-06-24, 02:47:04,VALID,996.778,VALID,0,VALID,87.5651,VALID,0,VALID,21.9455,VALID,356,VALID,0.597266,
2011-06-24, 02:48:04,VALID,996.772,VALID,0,VALID,87.5728,VALID,0,VALID,21.887,VALID,359,VALID,1.00781,
2011-06-24, 02:49:04,VALID,996.723,VALID,0,VALID,87.794,VALID,0,VALID,21.8675,VALID,1,VALID,1.35781,
2011-06-24, 02:50:04,VALID,996.713,VALID,0,VALID,88.0229,VALID,0,VALID,21.848,VALID,4,VALID,1.54219,
2011-06-24, 02:51:04,VALID,996.704,VALID,0,VALID,87.9848,VALID,0,VALID,21.8675,VALID,8,VALID,1.64531,
2011-06-24, 02:52:04,VALID,996.695,VALID,0,VALID,87.9314,VALID,0,VALID,21.848,VALID,11,VALID,1.34414,
2011-06-24, 02:53:04,VALID,996.7,VALID,0,VALID,87.9848,VALID,0,VALID,21.77,VALID,1,VALID,0.610937,
2011-06-24, 02:54:04,VALID,996.725,VALID,0,VALID,88.3815,VALID,0,VALID,21.7505,VALID,1,VALID,0.296875,
2011-06-24, 02:55:04,VALID,996.679,VALID,0,VALID,88.6791,VALID,0,VALID,21.7488,VALID,1,VALID,0.275391,
2011-06-24, 02:56:04,VALID,996.674,VALID,0,VALID,88.702,VALID,0,VALID,21.7505,VALID,1,VALID,0.470703,
2011-06-24, 02:57:04,VALID,996.676,VALID,0,VALID,88.8698,VALID,0,VALID,21.7505,VALID,1,VALID,0.715625,
2011-06-24, 02:58:04,VALID,996.68,VALID,0,VALID,88.763,VALID,0,VALID,21.7505,VALID,7,VALID,0.957422,
2011-06-24, 02:59:04,VALID,996.674,VALID,0,VALID,88.6562,VALID,0,VALID,21.7115,VALID,21,VALID,1.13242,
2011-06-24, 03:00:04,VALID,996.668,VALID,0,VALID,88.7783,VALID,0,VALID,21.653,VALID,33,VALID,1.54336,
2011-06-24, 03:01:04,VALID,996.692,VALID,0,VALID,89.03,VALID,0,VALID,21.614,VALID,32,VALID,0.580078,
2011-06-24, 03:02:04,VALID,996.678,VALID,0,VALID,89.1216,VALID,0,VALID,21.5555,VALID,21,VALID,0.776953,
2011-06-24, 03:03:04,VALID,996.65,VALID,0,VALID,89.3657,VALID,0,VALID,21.5165,VALID,31,VALID,0.919141,
2011-06-24, 03:04:04,VALID,996.651,VALID,0,VALID,89.7625,VALID,0,VALID,21.4758,VALID,30,VALID,1.12461,
2011-06-24, 03:05:04,VALID,996.612,VALID,0,VALID,89.854,VALID,0,VALID,21.497,VALID,343,VALID,0.772266,
2011-06-24, 03:06:04,VALID,996.617,VALID,0,VALID,89.9456,VALID,0,VALID,21.4758,VALID,338,VALID,0.748047,
2011-06-24, 03:07:04,VALID,996.593,VALID,0,VALID,90.144,VALID,0,VALID,21.575,VALID,347,VALID,0.577734,
2011-06-24, 03:08:04,VALID,996.58,VALID,0,VALID,90.1974,VALID,0,VALID,21.614,VALID,346,VALID,0.686719,
2011-06-24, 03:09:04,VALID,996.575,VALID,0,VALID,90.144,VALID,0,VALID,21.653,VALID,346,VALID,0.780469,
2011-06-24, 03:10:04,VALID,996.569,VALID,0,VALID,89.8998,VALID,0,VALID,21.6725,VALID,348,VALID,0.378516,
2011-06-24, 03:11:04,VALID,996.576,VALID,0,VALID,89.7701,VALID,0,VALID,21.6725,VALID,23,VALID,0.787109,
2011-06-24, 03:12:04,VALID,996.56,VALID,0,VALID,89.9685,VALID,0,VALID,21.7115,VALID,29,VALID,0.443359,
2011-06-24, 03:13:04,VALID,996.529,VALID,0,VALID,89.7472,VALID,0,VALID,21.7115,VALID,34,VALID,0.702734,
2011-06-24, 03:14:04,VALID,996.584,VALID,0,VALID,89.5183,VALID,0,VALID,21.731,VALID,63,VALID,1.21211,
2011-06-24, 03:15:04,VALID,996.582,VALID,0,VALID,89.3352,VALID,0,VALID,21.7115,VALID,77,VALID,1.48477,
2011-06-24, 03:16:04,VALID,996.581,VALID,0,VALID,89.5565,VALID,0,VALID,21.7115,VALID,71,VALID,1.49805,
2011-06-24, 03:17:04,VALID,996.617,VALID,0,VALID,89.5489,VALID,0,VALID,21.692,VALID,101,VALID,0.915234,
2011-06-24, 03:18:04,VALID,996.648,VALID,0,VALID,89.6251,VALID,0,VALID,21.6123,VALID,116,VALID,0.664844,
2011-06-24, 03:19:04,VALID,996.591,VALID,0,VALID,89.9532,VALID,0,VALID,21.614,VALID,93,VALID,1.55859,
2011-06-24, 03:20:04,VALID,996.601,VALID,0,VALID,90.1592,VALID,0,VALID,21.6156,VALID,88,VALID,1.79883,
2011-06-24, 03:21:04,VALID,996.631,VALID,0,VALID,90.3881,VALID,0,VALID,21.653,VALID,67,VALID,2.07656,
2011-06-24, 03:22:04,VALID,996.579,VALID,0,VALID,90.3194,VALID,0,VALID,21.77,VALID,89,VALID,0.939844,
2011-06-24, 03:23:04,VALID,996.591,VALID,0,VALID,89.8159,VALID,0,VALID,21.8692,VALID,113,VALID,1.14844,
2011-06-24, 03:24:04,VALID,996.603,VALID,0,VALID,89.4649,VALID,0,VALID,21.887,VALID,97,VALID,1.12305,
2011-06-24, 03:25:04,VALID,996.609,VALID,0,VALID,89.2894,VALID,0,VALID,21.926,VALID,93,VALID,1.48125,
2011-06-24, 03:26:04,VALID,996.589,VALID,0,VALID,88.969,VALID,0,VALID,21.965,VALID,87,VALID,1.43047,
2011-06-24, 03:27:04,VALID,996.566,VALID,0,VALID,88.9232,VALID,0,VALID,21.9455,VALID,83,VALID,1.29023,
2011-06-24, 03:28:04,VALID,996.586,VALID,0,VALID,89.0682,VALID,0,VALID,21.965,VALID,76,VALID,1.13828,
2011-06-24, 03:29:04,VALID,996.571,VALID,0,VALID,89.0453,VALID,0,VALID,22.0642,VALID,75,VALID,0.806641,
2011-06-24, 03:30:04,VALID,996.579,VALID,0,VALID,88.5951,VALID,0,VALID,22.121,VALID,75,VALID,0.535547,
2011-06-24, 03:31:04,VALID,996.573,VALID,0,VALID,88.29,VALID,0,VALID,22.16,VALID,75,VALID,0.564844,
2011-06-24, 03:32:04,VALID,996.561,VALID,0,VALID,88.0687,VALID,0,VALID,22.199,VALID,75,VALID,0.271484,
2011-06-24, 03:33:04,VALID,996.567,VALID,0,VALID,87.9695,VALID,0,VALID,22.2381,VALID,75,VALID,0.527734,
2011-06-24, 03:34:04,VALID,996.598,VALID,0,VALID,87.8017,VALID,0,VALID,22.2966,VALID,75,VALID,0.45,
2011-06-24, 03:35:04,VALID,996.605,VALID,0,VALID,87.588,VALID,0,VALID,22.3551,VALID,75,VALID,0.40625,
2011-06-24, 03:36:04,VALID,996.619,VALID,0,VALID,87.3363,VALID,0,VALID,22.3941,VALID,75,VALID,0.0949219,
2011-06-24, 03:37:04,VALID,996.61,VALID,0,VALID,87.3744,VALID,0,VALID,22.3924,VALID,91,VALID,1.11094,
2011-06-24, 03:38:04,VALID,996.626,VALID,0,VALID,87.527,VALID,0,VALID,22.4331,VALID,76,VALID,0.809375,
2011-06-24, 03:39:04,VALID,996.642,VALID,0,VALID,87.4278,VALID,0,VALID,22.4526,VALID,76,VALID,0.337109,
2011-06-24, 03:40:04,VALID,996.671,VALID,0,VALID,87.3439,VALID,0,VALID,22.4526,VALID,76,VALID,0.250781,
2011-06-24, 03:41:04,VALID,996.631,VALID,0,VALID,87.4049,VALID,0,VALID,22.4526,VALID,76,VALID,0.096875,
2011-06-24, 03:42:04,VALID,996.643,VALID,0,VALID,87.4889,VALID,0,VALID,22.4136,VALID,76,VALID,0.274219,
2011-06-24, 03:43:04,VALID,996.689,VALID,0,VALID,87.5728,VALID,0,VALID,22.3941,VALID,76,VALID,0.43125,
2011-06-24, 03:44:04,VALID,996.709,VALID,0,VALID,87.6949,VALID,0,VALID,22.3551,VALID,76,VALID,0.458203,
2011-06-24, 03:45:04,VALID,996.764,VALID,0,VALID,88.0611,VALID,0,VALID,22.3356,VALID,62,VALID,0.68125,
2011-06-24, 03:46:04,VALID,996.795,VALID,0,VALID,88.2366,VALID,0,VALID,22.3161,VALID,96,VALID,0.720703,
2011-06-24, 03:47:04,VALID,996.819,VALID,0,VALID,88.4578,VALID,0,VALID,22.2966,VALID,94,VALID,1.31758,